Lexington Weather

Lexington, Massachusetts, USA

44°F
1/23/2020 1:12pm 
  • Lexington Conditions: Mostly cloudy
  • Temperature: 44.1°F / 6.7°CWarmer 2.0°F than last hour.
  • Dew Point: 21.2°F 
  • Relative Humidity: 40%Decreased 3.0% since last hour.
  • Wind: Calm, 10-min avg: Calm, gust: None
  • Barometer: 30.28 inFalling 0.02  inHg/hr Falling Slowly
  • Visibility: 10 miles
  • Rain Today: 0.03 in
  •   

Regional Weather Roundup
for Boston / Norton, MA

        
000
ASUS41 KBOX 221510
RWRBOX

REGIONAL WEATHER ROUNDUP
NATIONAL WEATHER SERVICE BOSTON/NORTON MA
1000 AM EST WED JAN 22 2020

NOTE:  "FAIR" INDICATES FEW OR NO CLOUDS BELOW 12,000 FEET WITH NO 
SIGNIFICANT WEATHER AND/OR OBSTRUCTIONS TO VISIBILITY.

MAZALL-221600-
EASTERN MASSACHUSETTS
  
CITY           SKY/WX    TMP DP  RH WIND       PRES   REMARKS
BOSTON         FAIR      31  14  49 CALM      30.46R                  
BEVERLY        FAIR      25  12  58 SW5       30.43F WCI  19          
LAWRENCE       FAIR      21  10  62 SW6       30.45S WCI  13          
BEDFORD        FAIR      25  10  53 W5        30.44S WCI  19          
BLUE HILL        N/A     24  12  60 CALM      30.40R                  
NORWOOD        FAIR      27  10  49 SW5       30.46S WCI  22          
MARSHFIELD     FAIR      30  10  43 VRB3      30.46S                  
PLYMOUTH       FAIR      26  14  60 W5        30.45F WCI  20          
TAUNTON        FAIR      25  12  58 CALM      30.46S                  
NEW BEDFORD    FAIR      27  13  55 W3        30.45F                  
$$

MAZALL-221600-
CAPE COD AND THE ISLANDS
  
CITY           SKY/WX    TMP DP  RH WIND       PRES   REMARKS
FALMOUTH       NOT AVBL                                               
HYANNIS        FAIR      32  12  43 S3        30.44S                  
CHATHAM        FAIR      31  17  56 VRB3      30.46R                  
PROVINCETOWN   FAIR      31  20  63 W6        30.46S WCI  25          
NANTUCKET      FAIR      33   9  36 W5        30.45S WCI  29          
MARTHAS VNYRD  FAIR      31  15  52 VRB3      30.45S                  
$$
 
MAZALL-221600-
CENTRAL AND WESTERN MASSACHUSETTS
  
CITY           SKY/WX    TMP DP  RH WIND       PRES   REMARKS
WORCESTER      FAIR      24  11  57 W7        30.39R WCI  16          
FITCHBURG      FAIR      25  11  55 CALM      30.43S                  
ORANGE         FAIR      11   4  73 CALM      30.44F                  
SPRINGFIELD    MOSUNNY   13   2  61 CALM      30.46S                  
WESTFIELD      SUNNY     16   7  67 CALM      30.46F                  
NORTH ADAMS    CLOUDY    25  16  68 W9        30.43R WCI  15          
PITTSFIELD     CLOUDY    24  16  71 W8        30.39R WCI  15          
$$
 
RIZALL-221600-
RHODE ISLAND
  
CITY           SKY/WX    TMP DP  RH WIND       PRES   REMARKS
PROVIDENCE     FAIR      29  14  53 CALM      30.47S                  
NEWPORT        FAIR      29  14  53 N6        30.45S WCI  23          
BLOCK ISLAND   FAIR      29  15  56 NW5       30.47S WCI  24          
SMITHFIELD     FAIR      27  14  58 CALM      30.44R                  
WESTERLY       FAIR      31  13  47 NW8       30.47S WCI  23          
$$
 
CTZALL-221600-
CONNECTICUT
  
CITY           SKY/WX    TMP DP  RH WIND       PRES   REMARKS
BRADLEY INTL   FAIR      20   8  60 CALM      30.47S                  
HARTFORD       FAIR      20  12  71 CALM      30.50R                  
BRIDGEPORT     FAIR      29  14  53 NW3       30.49R                  
DANBURY        FAIR      23  11  60 CALM      30.47S                  
GROTON         FAIR      29  15  56 N5        30.47F WCI  24          
NEW HAVEN      FAIR      29  16  58 NW6       30.48S WCI  23          
CHESTER        NOT AVBL                                               
MERIDEN        FAIR      25  12  58 W10       30.48S WCI  15          
WILLIMANTIC    FAIR      17   8  67 CALM      30.49S                  
OXFORD         FAIR      24  13  62 CALM      30.45R                  
$$

MEZ002-015-021-024-NHZ003-005-008-011-012-014-VTZ005-008-221600-
NORTHERN NEW ENGLAND
  
CITY           SKY/WX    TMP DP  RH WIND       PRES   REMARKS
PORTLAND ME    FAIR      23   8  52 W5        30.43R WCI  17          
BANGOR ME      PTSUNNY   20  13  74 S3        30.41S                  
CONCORD NH     FAIR      18   6  59 CALM      30.42R                  
MANCHESTER NH  FAIR      17   7  64 CALM      30.42R                  
NASHUA NH      FAIR      17   8  67 CALM      30.44S                  
PORTSMOUTH NH  SUNNY     23   8  52 CALM      30.41S                  
JAFFREY NH     FAIR      21  10  62 S3        30.38R                  
KEENE NH       FAIR      18  10  71 CALM      30.45S                  
BURLINGTON VT  FAIR      27  17  66 S9        30.35S WCI  18          
MT. WASHINGTON PTSUNNY   16   3  57 NW41        N/A  WCI  -7          
$$

NYZ052-076-221600-
EASTERN NEW YORK
  
CITY           SKY/WX    TMP DP  RH WIND       PRES   REMARKS
ALBANY         CLOUDY    24  14  65 S5        30.46S WCI  18          
NEW YORK CITY  FAIR      30  15  53 CALM      30.49S                  
$$
 
ANZALL-221600-
MARINE OBSERVATIONS
  
STATION/POSITION TIME  TEMP    WIND        PRES    VSBY  WAVE
                       AIR SEA DIR/SP/G                  HT/PER
                 (UTC) (F)     (DEG/KT/KT) (MB)    (MI)  (FT/S)
BOSTON BUOY      1450   29 42  260/  8/ 10 1030.7R         1/10
BUZZARDS BAY     1400   27     340/  9/ 10 1031.9R
NANTUCKET SOUND  1440                        N/A           1
MASS BAY-STELLWA 1404   28 41  310/  8/ 10 1028.8R  1 1/2  1/ 3
ISLE OF SHOALS   1500   25     270/  6/  8 1030.2F
S OF BLOCK IS    1430      45                N/A           2/ 8
$$

......................KEY.........................
  SKY/WX - SKY CONDITION/PRESENT WEATHER
  TMP    - TEMPERATURE IN FAHRENHEIT
  DWPT   - DEWPOINT IN FAHRENHEIT
  RH     - RELATIVE HUMIDITY IN PERCENT
  WIND   - DIRECTION AND SPEED IN MPH
  PRES   - MEAN SEA LEVEL PRESSURE IN INCHES OF HG
  WCI    - WIND CHILL INDEX
  VSB    - VISIBILITY IN MILES
  HX     - HEAT INDEX
  TC     - TEMPERATURE IN CELSIUS
  VRB    - VARIABLE WIND DIRECTION
  N/A    - NOT AVAILABLE
  
      

Other recent Regional Weather Roundups

Thu Jan 23, 1:00pm

Thu Jan 23, 12:10pm

Thu Jan 23, 12:01pm

Thu Jan 23, 11:10am

Thu Jan 23, 11:00am

Thu Jan 23, 10:10am

Thu Jan 23, 10:00am

Thu Jan 23, 9:10am

Thu Jan 23, 9:00am

Thu Jan 23, 8:10am

Thu Jan 23, 8:00am

Thu Jan 23, 7:10am

Thu Jan 23, 7:01am

Thu Jan 23, 6:10am

Thu Jan 23, 6:00am

Thu Jan 23, 5:10am

Thu Jan 23, 5:00am

Thu Jan 23, 4:10am

Thu Jan 23, 4:01am

Thu Jan 23, 3:10am

Thu Jan 23, 3:00am

Thu Jan 23, 2:10am

Thu Jan 23, 2:00am

Thu Jan 23, 1:10am

Thu Jan 23, 1:00am

Thu Jan 23, 12:10am

Thu Jan 23, 12:00am

Wed Jan 22, 11:10pm

Wed Jan 22, 11:01pm

Wed Jan 22, 10:10pm

Wed Jan 22, 10:00pm

Wed Jan 22, 9:10pm

Wed Jan 22, 9:00pm

Wed Jan 22, 8:10pm

Wed Jan 22, 8:01pm

Wed Jan 22, 7:10pm

Wed Jan 22, 7:00pm

Wed Jan 22, 6:10pm

Wed Jan 22, 6:01pm

Wed Jan 22, 5:10pm

Wed Jan 22, 5:00pm

Wed Jan 22, 4:10pm

Wed Jan 22, 4:00pm

Wed Jan 22, 3:10pm

Wed Jan 22, 3:00pm

Wed Jan 22, 2:10pm

Wed Jan 22, 2:00pm

Wed Jan 22, 1:10pm

Wed Jan 22, 1:00pm

Wed Jan 22, 12:10pm

Wed Jan 22, 12:00pm

Wed Jan 22, 11:10am

Wed Jan 22, 11:00am

Wed Jan 22, 10:01am

Wed Jan 22, 9:10am

Wed Jan 22, 9:00am

Wed Jan 22, 8:10am

Wed Jan 22, 8:00am

Wed Jan 22, 7:10am

Wed Jan 22, 7:00am

Wed Jan 22, 6:10am

Wed Jan 22, 6:00am

Wed Jan 22, 5:10am

Wed Jan 22, 5:00am

Wed Jan 22, 4:10am

Wed Jan 22, 4:00am

Wed Jan 22, 3:10am

Wed Jan 22, 3:01am

Wed Jan 22, 2:10am

Wed Jan 22, 2:00am

Wed Jan 22, 1:10am

Wed Jan 22, 1:00am

Wed Jan 22, 12:10am

Wed Jan 22, 12:00am

Tue Jan 21, 11:10pm

Tue Jan 21, 11:00pm

Tue Jan 21, 10:10pm

Tue Jan 21, 10:00pm

Tue Jan 21, 9:10pm

Tue Jan 21, 9:01pm

Tue Jan 21, 8:10pm

Tue Jan 21, 8:00pm

Tue Jan 21, 7:10pm

Tue Jan 21, 7:00pm

Tue Jan 21, 6:10pm

Tue Jan 21, 6:01pm

Tue Jan 21, 5:10pm

Tue Jan 21, 5:00pm

Tue Jan 21, 4:10pm

Tue Jan 21, 4:00pm

Tue Jan 21, 3:10pm

Tue Jan 21, 3:01pm

Tue Jan 21, 2:10pm

Tue Jan 21, 2:00pm

Tue Jan 21, 1:10pm

Tue Jan 21, 1:00pm

Tue Jan 21, 12:10pm

Tue Jan 21, 12:00pm

Tue Jan 21, 11:10am

Tue Jan 21, 11:00am

Tue Jan 21, 10:10am

Tue Jan 21, 10:00am

Tue Jan 21, 9:10am

Tue Jan 21, 9:00am

Tue Jan 21, 8:10am

Tue Jan 21, 8:00am

Tue Jan 21, 7:10am

Tue Jan 21, 7:00am

Tue Jan 21, 6:10am

Tue Jan 21, 6:00am

Tue Jan 21, 5:10am

Tue Jan 21, 5:00am

Tue Jan 21, 4:10am

Tue Jan 21, 4:00am

Tue Jan 21, 3:10am

Tue Jan 21, 3:00am

Tue Jan 21, 2:10am

Tue Jan 21, 2:01am

Tue Jan 21, 1:10am

Tue Jan 21, 1:00am

Tue Jan 21, 12:10am

Tue Jan 21, 12:00am

Mon Jan 20, 11:10pm

Mon Jan 20, 11:00pm

Mon Jan 20, 10:10pm

Mon Jan 20, 10:00pm

Mon Jan 20, 9:10pm

Mon Jan 20, 9:00pm

Mon Jan 20, 8:10pm

Mon Jan 20, 8:00pm

Mon Jan 20, 7:10pm

Mon Jan 20, 7:00pm

Mon Jan 20, 6:10pm

Mon Jan 20, 6:00pm

Mon Jan 20, 5:10pm

Mon Jan 20, 5:00pm

Mon Jan 20, 4:10pm

Mon Jan 20, 4:01pm

Mon Jan 20, 3:10pm

Mon Jan 20, 3:00pm

Mon Jan 20, 2:10pm

Mon Jan 20, 2:00pm

Mon Jan 20, 1:10pm

Meta data:

ID: 4d631c64-8048-4395-b2e2-e705a7fbb69c
Link: https://api.weather.gov/products/4d631c64-8048-4395-b2e2-e705a7fbb69c